Theta_e
287 287 288 288 288 289 288 289 289 289 290 290 291 291 291 292 292 293 294 295 296 297 298 298 299 300 300 300 301 301 302 303 305 306 308 311 313 316 320 324 329 331 334 337 339 341 342 342 343 344 344 346 345 347 345 344 344 347 347 344 344 344 345 343 343 342 343 343 343 344 344 343 342 342 341 341 340 339 338 338 337 336 335 335 334
287 287 287 287 288 288 288 288 287 288 288 288 288 288 288 289 291 292 293 294 295 296 297 297 298 299 299 299 300 300 301 301 303 304 306 307 311 313 315 318 323 328 331 334 337 340 342 343 344 344 344 344 344 344 346 345 344 344 347 345 345 345 343 343 341 342 342 342 343 342 343 342 342 341 341 340 339 338 338 337 337 336 336 335 334
287 287 287 287 287 287 287 287 287 287 287 287 287 287 287 288 289 290 291 293 293 295 295 296 297 298 299 299 299 300 300 301 302 303 304 306 308 311 313 315 319 323 327 331 333 336 338 340 341 343 344 343 344 345 345 346 345 344 345 347 345 345 342 343 343 343 342 342 342 342 341 341 341 341 340 339 339 338 338 337 337 336 336 335 334
287 286 287 286 286 286 286 286 286 286 287 286 286 287 287 288 288 289 290 291 292 294 295 295 296 297 298 298 299 299 300 300 301 302 303 304 305 306 308 310 314 318 322 327 332 334 337 338 340 339 341 343 344 345 345 346 345 344 343 344 346 344 343 341 342 342 342 342 342 342 341 341 340 340 339 339 338 338 337 337 337 336 335 335 334
286 286 286 286 285 285 285 286 286 286 286 286 286 286 286 287 287 289 289 290 291 292 294 294 295 296 297 297 298 298 299 300 300 301 301 302 302 304 306 308 309 311 315 320 326 331 334 336 337 339 341 342 342 343 343 344 343 345 344 342 346 347 346 345 342 341 342 341 342 341 341 341 340 339 339 338 338 338 337 337 336 336 335 334 334
286 286 285 285 285 285 285 285 285 285 285 285 285 285 285 286 286 286 287 288 289 290 291 292 293 295 296 297 297 298 298 298 299 300 300 300 301 302 302 305 306 308 311 315 320 325 329 333 335 337 338 339 340 342 342 342 344 344 344 343 339 345 346 345 344 341 343 342 341 341 340 341 340 339 339 338 338 337 337 336 336 336 335 334 334
286 285 285 284 284 284 284 284 285 285 284 285 284 285 285 284 285 285 286 287 288 289 289 290 291 292 294 295 296 297 297 298 298 299 299 300 300 300 301 301 303 305 308 312 312 318 324 328 333 335 337 338 339 340 342 342 342 343 345 345 344 345 345 344 343 343 342 344 342 341 340 340 340 339 339 338 338 337 337 336 336 335 335 334 332
285 285 284 284 283 283 283 284 284 284 284 284 284 284 284 284 285 285 284 285 285 285 286 286 288 288 291 292 294 295 296 297 297 298 299 299 299 299 300 301 302 303 306 307 310 317 319 324 328 332 333 335 337 338 340 341 342 342 343 343 341 342 341 343 344 344 342 341 341 340 340 339 339 338 338 338 338 337 337 336 335 335 334 333 332
285 284 283 283 283 283 283 283 284 283 283 283 283 284 283 283 284 285 285 283 283 283 284 285 286 287 288 290 291 293 294 296 296 297 298 298 298 299 299 300 301 302 302 304 306 307 316 320 324 327 327 329 333 336 338 339 341 342 341 342 343 342 341 339 342 342 341 340 340 340 339 339 339 338 338 337 337 337 336 336 335 334 333 333 331
284 284 283 283 283 283 283 283 283 283 282 282 282 283 283 284 283 284 284 283 282 282 283 284 285 286 287 288 289 291 293 295 296 297 297 297 298 298 299 300 300 301 302 303 307 308 309 317 320 322 320 323 329 334 336 338 340 341 343 342 344 344 342 341 341 342 340 340 338 338 338 339 338 338 338 337 337 337 336 335 334 334 333 332 331
284 283 282 282 282 282 282 282 282 282 282 282 282 282 283 283 282 282 283 283 282 282 282 283 284 285 286 287 289 290 292 294 296 296 296 297 297 298 299 299 299 300 301 302 303 306 307 310 323 328 328 320 326 330 333 337 337 338 339 340 342 345 344 341 340 342 341 341 340 340 339 339 338 337 337 337 337 336 335 335 334 333 333 331 330
283 283 282 282 282 282 281 282 282 281 281 281 281 281 281 281 281 281 281 282 283 282 283 283 283 284 285 287 289 290 291 293 294 295 296 297 297 298 297 298 298 299 300 302 302 304 306 309 315 325 329 325 322 324 329 332 330 335 337 339 340 341 344 341 340 340 341 341 340 339 339 339 338 337 337 336 335 336 335 334 334 333 332 331 330
282 282 281 281 281 281 281 281 281 281 281 280 281 281 281 281 281 281 280 280 280 282 282 283 282 283 287 287 289 291 292 292 293 294 295 296 297 296 297 297 298 299 300 301 303 303 306 307 311 320 325 330 326 319 321 324 323 330 336 339 340 341 342 343 341 339 340 340 340 339 339 338 338 338 337 336 336 336 335 334 334 333 333 331 330
282 282 281 281 280 280 281 280 280 280 280 281 281 281 280 280 280 279 281 279 279 281 281 283 282 283 281 282 284 287 290 291 292 293 294 295 296 296 296 297 297 298 299 299 300 302 303 306 309 315 324 328 329 329 326 323 323 327 335 338 340 341 341 341 341 342 340 340 339 339 339 338 338 338 337 336 336 335 334 334 333 332 331 331 331
282 281 281 281 280 280 280 280 280 280 279 279 280 279 280 279 279 278 278 280 280 281 281 284 280 281 281 280 280 282 287 289 292 293 294 295 296 296 296 296 297 298 299 299 300 303 305 307 309 314 320 326 329 328 329 321 322 319 326 330 334 339 340 341 342 341 340 340 339 339 339 338 337 338 337 336 335 335 335 334 333 332 332 331 331
281 281 280 280 280 280 280 280 279 280 279 278 278 278 279 279 279 279 279 276 278 279 282 281 281 280 276 281 281 281 278 283 287 290 294 295 295 295 296 297 299 301 301 302 305 306 306 307 309 313 319 323 328 329 328 329 322 314 315 318 323 332 338 342 343 342 338 340 340 339 339 337 337 337 336 335 335 335 335 334 333 332 331 331 331
281 280 280 280 280 280 279 279 279 279 279 278 278 278 279 279 279 278 278 277 276 278 279 281 280 281 279 277 277 278 279 282 285 285 290 291 293 295 295 296 296 296 298 299 299 299 303 308 312 313 318 322 326 327 328 328 327 320 320 313 317 324 328 338 341 342 340 341 342 338 338 337 337 337 337 336 335 335 335 333 333 332 332 331 331
280 280 280 280 279 279 279 279 278 278 279 278 278 278 278 278 278 278 277 278 277 276 276 280 280 280 281 281 280 278 278 280 280 277 286 289 291 294 294 295 296 296 296 296 296 300 304 306 311 315 317 321 325 327 327 328 326 327 326 325 321 325 326 329 339 340 341 341 343 341 339 338 337 337 337 337 336 334 334 333 333 332 332 332 331
279 279 279 279 279 279 279 278 278 278 279 278 278 278 278 278 279 278 278 278 277 275 275 276 278 279 279 280 280 281 281 278 276 279 278 284 289 290 292 294 295 295 296 297 298 298 299 300 303 304 315 320 323 326 327 327 323 321 317 318 321 325 326 325 328 337 339 345 343 343 340 337 338 337 336 336 335 334 334 333 332 332 331 331 331
278 278 279 278 278 278 278 278 278 278 278 278 277 278 278 278 278 278 278 277 277 275 275 276 275 276 279 278 278 280 281 281 282 281 280 278 281 288 291 293 294 295 295 295 296 297 298 300 302 305 309 315 321 325 327 328 328 327 322 317 321 323 325 325 325 325 332 338 343 343 339 339 337 337 337 336 336 335 334 333 332 331 331 331 331
278 278 278 278 278 278 278 277 277 277 277 277 277 278 277 277 277 277 276 276 277 276 275 275 275 275 276 276 277 277 279 280 281 281 279 279 279 282 285 291 293 294 295 296 296 297 297 298 301 305 308 312 318 323 326 327 327 327 321 318 320 323 324 324 324 324 325 329 337 340 340 340 339 337 337 336 335 334 333 333 333 332 331 331 331
277 277 277 277 277 277 277 277 276 277 277 277 277 277 277 277 276 276 276 276 276 276 275 275 275 275 275 275 274 275 275 276 277 277 278 280 278 280 283 286 287 291 295 295 295 297 297 297 298 300 304 306 311 322 324 326 326 326 323 316 318 320 322 323 325 325 325 327 329 332 336 338 340 339 338 337 336 334 333 333 333 332 331 331 331
276 276 276 276 276 277 276 276 276 277 276 276 276 276 276 276 276 276 276 275 275 275 275 276 275 275 275 275 274 275 274 274 276 277 279 280 281 282 284 288 288 289 293 295 295 296 297 297 297 298 300 302 304 310 323 326 319 320 317 316 317 318 321 325 324 324 325 327 328 328 330 331 334 337 338 339 338 334 334 333 332 332 331 331 331
276 275 275 276 276 275 276 276 275 275 275 276 276 276 276 276 276 275 275 275 275 275 275 274 274 274 275 275 275 275 275 275 276 278 279 280 282 282 283 286 288 290 293 294 295 294 295 295 296 297 299 300 302 304 311 325 323 314 316 314 316 318 322 325 324 323 324 325 325 324 328 329 329 330 332 335 336 336 335 334 333 332 331 331 332
274 274 275 275 275 274 274 275 275 275 275 275 275 276 275 275 275 275 275 275 275 275 274 274 274 273 274 275 275 275 275 277 277 277 278 280 281 281 283 286 285 287 291 293 292 294 295 295 296 297 299 301 304 306 310 319 324 316 311 314 313 316 317 321 322 323 323 323 322 321 325 327 327 329 332 333 335 336 334 334 333 332 332 332 333
273 274 274 274 274 274 275 274 275 275 275 275 275 275 275 275 275 274 274 275 275 275 274 274 274 274 274 273 274 274 275 276 276 277 278 279 279 280 281 284 286 286 290 291 292 291 292 295 296 297 298 300 301 304 307 312 321 313 309 319 317 314 316 320 323 324 323 322 323 320 320 322 326 327 328 332 333 334 334 333 333 332 332 333 333
273 274 274 274 274 274 274 274 274 274 275 275 275 275 275 275 274 274 275 275 275 275 274 274 273 273 273 273 273 274 274 275 276 277 278 279 279 281 282 280 282 285 286 289 290 290 290 293 296 296 297 299 302 307 312 316 315 311 305 318 324 312 315 319 323 322 321 321 322 321 319 320 323 326 326 326 329 330 333 333 332 332 332 332 332
273 273 273 274 273 273 274 274 274 274 274 274 274 274 274 274 274 274 274 275 274 274 274 274 273 273 273 273 273 272 274 274 276 278 279 279 279 280 281 281 280 279 285 285 288 288 292 291 294 296 297 298 300 303 304 308 318 312 304 320 323 318 312 316 320 321 322 322 321 320 319 319 321 321 322 323 323 323 324 325 325 325 325 325 325
273 273 273 273 273 273 273 273 273 274 274 274 274 274 274 274 274 273 273 274 274 273 273 273 273 273 272 273 272 272 273 274 275 276 278 280 281 283 284 284 283 281 282 283 285 287 290 292 290 294 298 300 302 306 308 312 311 314 318 320 323 324 313 313 317 320 322 322 320 320 318 318 319 320 320 321 321 322 323 323 323 323 324 324 325
272 273 273 273 273 273 273 273 273 273 273 273 273 273 273 273 273 273 273 273 273 273 273 272 272 272 272 272 273 273 274 274 275 277 278 278 279 281 282 284 285 284 284 284 284 289 289 292 293 292 295 298 303 307 312 315 309 311 319 321 322 324 313 310 315 318 320 320 319 321 319 318 318 318 319 320 321 321 322 321 321 322 323 324 326
272 272 272 272 272 272 272 272 272 272 273 273 273 272 273 272 272 272 272 272 272 271 272 272 272 272 272 271 272 272 273 273 274 275 276 277 278 280 283 285 286 285 285 287 284 288 291 289 292 295 295 297 300 303 305 308 310 313 317 320 323 315 310 311 311 315 317 318 318 318 318 317 317 318 317 318 320 321 321 321 320 321 322 324 326
271 271 271 271 271 271 272 272 272 272 272 272 272 271 271 271 271 271 271 271 271 270 271 272 272 271 271 271 272 272 273 273 274 275 276 277 278 279 282 284 286 287 288 287 286 286 291 291 292 294 296 296 298 299 300 302 304 303 317 321 322 309 316 318 308 311 314 316 318 318 317 317 317 318 318 317 319 320 320 320 319 320 322 323 324
271 271 271 271 271 271 271 271 271 270 270 270 271 271 271 270 271 270 270 270 270 270 271 271 271 272 272 271 272 273 274 273 273 274 275 277 279 281 283 284 286 288 288 287 286 287 290 293 292 293 295 297 296 298 299 300 302 307 309 320 322 321 319 319 317 308 311 314 315 316 316 316 316 316 317 316 317 319 319 320 320 319 320 322 323
271 270 270 270 270 270 270 269 270 270 269 270 270 270 270 269 269 270 269 270 269 269 270 270 270 271 272 272 272 273 274 273 274 275 276 278 279 280 282 284 286 287 290 289 288 288 287 291 292 294 295 297 295 298 298 299 301 304 310 318 321 321 319 320 320 317 309 312 314 314 315 315 315 316 316 316 317 318 319 319 318 316 317 319 319
270 270 270 269 269 269 269 269 269 269 269 269 269 269 269 269 268 269 269 269 269 269 269 269 270 270 270 271 272 273 274 273 274 275 276 277 278 279 280 284 285 287 289 290 289 287 288 289 292 292 293 295 295 296 299 301 303 306 309 315 318 319 319 320 319 319 309 312 313 314 314 314 315 315 315 315 316 316 316 317 316 315 316 317 317
269 269 269 268 268 268 268 268 268 268 268 269 268 269 269 268 268 268 268 269 269 269 269 269 269 270 270 270 270 271 273 273 273 274 276 279 281 282 283 284 286 287 289 290 291 289 288 288 291 292 293 294 295 298 299 302 303 305 308 313 317 317 318 318 319 318 312 311 312 312 313 313 313 314 314 314 315 315 315 315 314 314 315 314 315
268 267 267 268 267 267 267 267 267 267 267 268 268 268 268 269 268 268 268 268 269 269 269 269 271 270 270 270 270 271 271 271 273 275 275 277 279 282 283 285 286 288 289 290 290 290 289 288 289 292 293 294 296 298 299 300 302 305 308 311 315 316 316 317 318 317 308 309 310 310 311 312 312 313 313 313 313 313 314 314 314 313 313 313 313
266 266 266 266 266 266 266 267 267 267 267 268 268 268 268 268 268 268 269 268 269 269 269 270 270 270 270 270 271 271 271 271 272 273 276 278 279 280 282 285 287 288 288 289 290 290 290 289 289 290 292 292 293 295 298 300 301 301 304 310 313 314 315 314 315 315 314 314 315 314 310 310 310 312 313 313 313 313 313 313 313 312 311 311 311
265 265 265 265 266 266 266 267 266 267 268 268 268 268 268 268 268 268 268 269 269 269 270 270 270 271 271 271 271 271 271 271 271 272 273 274 277 279 281 284 287 287 287 288 289 289 289 288 288 290 291 293 294 293 297 300 301 302 302 304 307 311 313 313 311 313 315 315 312 310 312 312 310 312 310 311 312 312 312 312 312 311 309 309 310
264 264 265 265 265 266 266 267 268 268 268 268 268 268 268 268 268 268 269 269 269 269 270 270 270 271 271 271 271 271 271 272 272 272 273 273 274 276 279 283 286 287 287 287 287 287 287 287 287 288 290 291 293 295 297 299 298 300 304 305 305 306 309 312 312 311 313 314 313 313 310 310 310 311 309 310 310 311 311 310 309 308 306 308 309
264 264 265 265 265 266 267 267 268 268 268 267 267 267 268 269 270 270 270 270 270 270 270 270 271 271 271 271 272 272 272 274 276 276 276 276 275 276 278 282 285 286 286 286 285 285 285 285 285 287 287 288 291 293 294 295 296 297 303 307 306 306 309 309 310 313 312 312 312 313 313 313 313 313 314 314 313 310 310 309 308 304 305 308 310
264 264 265 265 266 266 266 266 267 266 266 267 268 272 273 270 270 271 272 272 273 273 272 271 272 272 272 272 273 275 276 276 277 278 279 280 280 278 278 279 281 284 285 285 284 284 284 284 284 285 286 287 289 292 293 296 300 302 303 305 304 304 306 306 307 309 311 313 311 310 312 314 313 313 314 313 312 310 313 313 313 311 307 309 310
263 264 265 265 266 266 266 265 265 265 266 266 271 273 274 275 273 272 272 272 273 273 274 273 273 273 273 272 273 275 276 277 276 278 280 281 281 281 282 283 283 283 284 284 284 285 284 284 285 285 285 286 289 292 294 298 300 302 303 305 305 304 303 302 300 303 310 313 310 309 309 312 314 312 313 314 313 314 314 315 309 307 308 310 310
263 264 264 265 265 265 265 265 265 265 265 269 272 273 275 276 276 273 273 273 274 275 275 274 275 274 274 274 274 275 275 275 275 276 278 280 281 282 283 284 285 286 287 286 285 284 284 283 284 284 285 286 287 290 294 298 299 302 304 305 305 303 302 301 301 301 305 312 310 309 307 310 313 312 312 313 314 315 315 312 307 307 308 309 309
263 263 264 264 264 264 264 264 264 265 265 269 272 273 275 276 277 277 274 275 275 275 275 275 275 275 275 274 274 275 275 277 277 276 277 278 281 282 283 284 285 287 288 288 289 286 286 285 284 284 285 287 287 288 292 296 301 301 304 303 305 305 304 302 303 304 306 310 310 307 306 308 310 308 311 312 314 315 313 308 307 307 308 308 308
262 262 263 263 263 263 263 263 264 264 265 268 272 274 275 277 278 278 275 275 275 275 276 276 276 276 276 275 275 275 275 276 276 276 277 277 279 280 281 283 284 285 286 287 287 288 287 286 285 284 286 288 287 289 291 295 299 300 302 302 304 303 303 303 305 306 308 312 309 307 304 306 308 310 308 310 312 313 313 309 306 307 308 308 308
261 261 262 262 262 262 263 263 263 263 264 270 273 275 276 277 278 278 275 275 275 275 275 276 276 277 277 276 275 275 275 275 276 276 277 278 279 279 280 280 283 284 285 286 286 287 287 287 286 286 287 288 288 290 291 292 294 304 306 304 305 305 305 303 304 305 307 310 309 307 302 303 307 308 307 307 309 311 311 307 306 307 308 308 308
261 262 262 262 261 261 262 263 263 263 265 271 273 275 276 277 278 275 274 274 273 274 274 276 276 277 277 277 276 275 275 275 277 279 279 279 279 279 279 280 282 284 285 287 288 288 288 288 288 288 288 289 291 291 290 292 294 299 303 303 304 302 300 301 300 302 302 304 306 306 303 303 306 307 304 305 307 308 307 307 306 307 307 308 307
260 261 261 261 262 262 262 263 263 264 265 269 273 275 276 277 276 273 273 273 273 273 274 275 276 277 277 277 277 276 276 276 278 280 280 281 279 279 279 279 281 282 283 286 288 288 289 289 289 290 290 291 291 292 293 295 293 294 299 301 299 301 301 299 299 300 300 302 304 304 303 301 303 302 298 301 303 303 305 306 307 306 307 307 307
259 260 260 261 262 263 263 264 265 265 266 270 273 274 276 277 276 273 272 272 272 273 274 275 276 277 277 279 279 277 276 276 279 280 281 280 279 280 280 280 280 280 282 285 286 287 288 289 289 289 290 290 291 292 293 294 294 295 297 299 299 303 301 300 299 300 300 302 302 303 301 300 301 300 297 296 298 298 304 305 305 306 305 306 306
259 260 260 261 262 264 265 265 268 268 267 269 272 274 276 276 274 273 272 272 272 272 273 274 275 276 277 278 279 279 278 278 280 281 281 280 279 279 279 280 280 280 282 284 284 285 285 286 286 287 288 288 290 292 292 293 294 294 300 302 302 303 301 300 300 299 298 299 298 303 300 297 298 298 298 298 297 291 295 301 302 304 306 306 307
Wind_Speed
6 7 7 7 7 7 7 7 7 7 8 8 9 9 9 10 10 11 10 10 10 10 10 10 9 9 10 11 10 10 10 10 10 10 10 10 11 12 17 18 18 21 22 26 28 28 29 30 29 29 30 30 29 25 25 27 26 24 25 29 29 28 28 26 24 22 23 25 28 25 25 23 25 27 27 25 25 26 26 24 23 24 24 24 23
5 5 6 7 7 7 7 7 8 7 8 8 8 9 9 9 9 10 10 10 10 10 10 11 10 9 9 10 11 10 10 10 10 10 10 10 11 12 17 18 20 22 26 26 28 28 29 30 31 31 30 31 30 31 25 25 25 27 25 25 29 28 28 30 23 26 27 29 28 26 23 27 25 25 25 26 27 27 27 25 23 24 24 24 24
5 5 5 6 7 7 7 8 8 8 8 8 8 9 9 9 10 10 10 10 10 10 10 11 11 10 10 10 11 11 11 10 10 10 11 11 10 11 14 18 19 20 21 25 29 30 32 31 32 31 31 31 31 32 31 27 26 27 28 27 27 26 25 27 26 30 32 30 28 27 27 27 27 26 26 27 26 26 26 25 25 24 24 24 24
4 4 5 6 6 7 7 7 8 8 8 9 10 9 9 9 10 10 11 10 10 10 10 10 11 11 11 12 11 11 11 11 12 11 11 11 11 11 12 13 18 20 21 24 29 30 31 30 31 32 31 31 31 31 32 28 28 27 27 32 28 31 29 31 24 23 24 29 29 29 28 27 26 27 27 28 27 26 26 26 25 24 23 23 24
4 4 5 5 5 6 6 6 7 7 9 10 11 10 9 9 9 10 9 9 10 10 10 10 11 11 11 11 11 12 11 11 11 12 12 12 12 12 12 12 14 19 22 23 25 27 31 32 31 30 30 31 31 32 32 30 29 30 28 30 31 28 31 30 27 31 27 32 30 28 28 29 28 27 27 28 27 26 26 26 26 24 24 23 23
4 4 4 4 5 5 6 6 6 8 8 8 9 8 9 9 10 9 9 9 10 10 10 11 10 11 11 11 11 11 11 13 12 12 12 13 12 12 12 12 12 13 14 20 22 24 28 29 30 30 30 31 31 32 32 32 30 29 30 29 32 31 30 31 29 34 33 30 30 31 29 28 27 28 28 27 27 27 26 26 26 26 26 25 24
4 3 4 4 5 6 6 6 7 8 7 7 8 8 8 9 9 10 10 9 9 10 11 11 12 13 12 12 12 11 12 13 13 13 13 13 13 13 13 13 13 13 13 13 18 23 24 28 29 32 32 32 34 33 33 33 32 31 27 30 30 30 32 30 32 28 29 26 31 32 31 30 29 27 26 28 27 27 27 27 26 25 25 25 25
4 3 4 4 5 5 6 7 8 7 7 7 7 7 8 8 8 9 10 10 11 12 10 13 13 14 13 12 12 12 12 12 13 14 13 13 13 13 13 13 13 13 14 14 15 17 23 23 27 28 30 31 33 33 34 34 32 32 31 29 31 31 32 34 33 32 31 30 32 30 30 31 29 27 26 28 28 28 27 27 26 25 25 25 26
4 3 4 5 5 5 6 7 7 7 7 7 7 7 8 8 8 7 8 11 12 13 12 12 13 14 14 14 14 13 13 13 13 13 13 14 15 15 14 15 15 16 15 15 15 16 21 25 26 28 28 28 30 33 34 33 33 34 33 30 31 32 29 30 32 34 31 35 31 32 32 28 26 30 31 30 29 28 28 27 26 25 26 26 26
4 3 4 4 5 5 6 7 7 7 7 7 7 7 7 8 9 8 8 9 10 11 13 12 12 13 14 15 15 14 14 14 14 14 14 16 15 16 15 14 14 15 15 15 15 15 16 21 26 28 28 27 29 31 33 33 34 34 32 32 29 29 28 28 32 33 34 34 34 30 32 32 31 32 31 29 29 30 29 28 27 26 26 27 27
3 3 4 4 5 5 6 7 7 7 7 7 7 7 8 8 10 11 9 9 10 11 12 13 14 14 14 16 15 16 15 14 14 15 15 16 17 16 14 15 15 15 16 16 16 17 17 16 15 15 17 27 28 28 32 35 33 33 33 32 31 30 29 26 28 30 32 32 36 36 34 32 32 34 36 33 30 30 31 30 29 27 27 27 27
3 3 4 5 6 6 7 7 7 7 8 8 8 8 10 12 12 12 13 11 10 10 11 13 14 15 16 16 15 16 17 16 16 17 16 16 16 15 16 16 15 16 17 16 16 17 18 17 16 17 15 20 25 28 30 30 29 29 33 33 33 33 30 28 28 30 31 31 31 34 33 32 31 33 33 34 33 27 28 29 28 28 28 28 29
4 4 4 5 5 6 6 7 7 7 8 8 9 10 10 10 11 11 13 14 11 9 9 11 14 14 11 13 14 14 16 18 19 18 17 15 15 16 16 15 16 16 16 16 17 17 18 18 17 17 18 12 16 25 29 29 27 28 34 35 33 33 32 29 30 34 32 33 27 31 30 32 33 32 34 33 30 33 32 30 31 31 30 30 30
4 4 5 5 6 6 6 7 7 7 8 9 10 10 11 10 9 11 9 11 11 7 9 9 9 9 14 16 14 11 14 18 19 17 17 16 17 17 17 17 18 17 16 17 18 19 19 19 18 18 17 15 14 12 14 20 23 30 33 38 34 33 33 32 29 31 32 35 32 31 33 34 34 34 31 31 34 36 33 33 34 34 33 33 32
4 5 5 5 6 7 7 7 8 8 9 9 9 10 9 10 10 10 12 10 11 9 9 6 9 9 11 13 14 17 10 10 12 16 16 16 15 16 17 17 19 17 15 15 16 17 17 18 19 19 18 19 13 14 13 14 16 26 31 30 31 32 32 33 30 33 36 40 39 34 34 34 36 39 40 39 37 34 34 35 36 36 34 33 32
5 5 5 5 6 7 7 7 8 8 9 10 10 11 10 10 10 11 11 15 11 9 7 8 8 6 9 4 10 9 18 11 5 9 12 14 14 16 15 15 15 15 13 16 16 16 17 17 20 19 18 19 14 13 17 13 18 23 28 29 29 32 34 32 31 30 33 38 42 42 44 37 35 35 33 37 39 38 36 34 34 35 34 33 33
6 6 7 7 7 7 8 8 9 9 9 10 10 10 10 10 11 11 11 11 15 12 10 8 10 8 8 9 9 9 12 15 16 16 12 14 18 18 17 17 18 18 14 14 13 14 16 18 19 19 20 20 18 17 15 17 15 16 19 26 28 29 30 34 32 33 30 37 34 35 34 34 39 38 36 33 32 36 37 37 35 33 34 35 34
6 6 6 7 7 7 8 8 9 9 9 9 10 11 11 11 10 10 12 11 12 15 14 9 10 12 13 13 12 12 13 12 12 18 8 11 17 16 17 17 15 15 16 17 17 14 13 15 16 19 19 18 18 17 17 16 15 15 12 16 29 31 30 31 34 32 31 37 37 35 37 37 35 36 36 36 35 38 40 36 33 34 34 35 35
7 6 7 6 7 7 8 8 9 9 9 10 11 12 11 11 9 10 11 11 11 14 15 13 11 12 12 15 18 17 16 14 15 15 21 15 12 16 19 19 19 19 18 16 15 15 14 14 15 17 20 21 19 17 17 17 19 20 20 21 25 29 30 29 29 28 31 33 38 40 42 42 43 41 41 40 38 41 38 37 36 34 35 36 36
7 7 7 7 7 8 8 9 9 10 10 10 11 11 11 11 11 12 11 11 12 13 15 13 12 13 8 12 15 16 18 20 22 19 18 21 19 15 18 20 19 19 21 19 18 17 17 15 14 13 14 17 20 17 17 16 16 18 18 25 24 27 28 28 29 28 25 25 37 41 42 40 37 41 43 41 40 42 43 41 38 37 37 36 35
6 7 7 7 7 9 9 9 10 11 10 11 12 12 14 14 13 12 12 12 12 13 14 14 13 15 11 14 13 14 14 16 17 17 18 18 22 20 20 17 18 19 18 18 17 15 16 16 14 14 14 14 17 19 18 17 15 15 18 24 26 27 28 29 28 28 26 25 34 39 40 42 40 37 43 44 40 41 43 40 39 38 40 39 36
6 6 8 7 8 9 9 10 11 11 11 12 14 14 14 14 14 14 14 15 13 13 15 14 14 15 14 14 15 14 14 15 16 16 18 21 22 21 19 19 19 15 13 16 16 14 15 15 16 15 14 13 14 17 20 18 17 16 18 25 27 27 27 28 28 27 28 27 33 37 40 38 45 40 37 35 38 41 40 40 38 39 40 39 37
5 6 7 8 8 9 9 10 11 12 12 13 13 13 13 13 14 15 16 17 15 15 17 17 15 16 17 15 17 16 14 15 14 14 16 17 17 21 22 19 20 21 16 17 17 16 13 14 15 16 15 14 13 14 17 19 20 20 24 25 27 28 28 28 28 28 28 28 34 39 41 41 44 47 45 39 38 40 41 40 38 39 41 38 38
6 7 6 7 8 9 10 12 12 12 13 12 12 13 13 13 13 13 14 15 16 15 15 17 17 16 21 16 18 17 18 18 17 15 16 17 17 20 19 17 17 18 15 15 16 15 15 15 15 15 16 15 14 13 17 18 18 25 21 25 28 29 28 28 29 29 30 29 31 31 34 36 38 32 38 47 45 43 42 42 38 39 40 39 36
7 7 8 8 9 10 11 11 11 11 13 13 14 15 14 14 14 16 16 17 15 16 15 17 18 17 19 18 17 19 18 17 17 18 18 18 18 20 20 16 19 19 15 14 16 13 12 13 13 14 14 14 14 12 14 15 15 20 23 20 29 27 28 29 30 31 31 31 32 30 31 36 37 37 32 35 42 43 45 42 40 41 40 38 38
10 10 8 9 9 11 12 13 14 15 14 15 15 14 14 14 15 16 17 16 15 18 18 19 20 24 19 20 18 20 19 17 18 18 18 18 17 18 17 14 17 21 16 13 15 17 13 11 13 13 14 14 15 14 14 16 16 22 26 21 25 30 30 31 32 32 32 33 32 37 36 36 38 40 37 35 38 40 43 41 42 42 40 38 39
9 10 10 11 12 11 12 13 13 13 14 15 14 15 15 15 15 17 17 15 16 19 19 20 21 23 22 21 20 19 19 18 18 19 18 19 19 18 15 16 17 18 19 15 14 19 19 12 11 13 14 14 14 14 13 13 18 23 21 21 18 33 34 34 32 33 32 33 34 36 37 43 44 42 42 39 38 38 43 43 41 43 39 39 36
11 11 12 11 12 13 13 13 14 14 14 15 15 14 15 15 15 15 18 13 16 21 20 21 23 23 23 21 20 22 19 18 18 18 18 19 18 18 16 16 19 20 15 17 15 20 13 13 13 13 14 14 15 15 17 19 16 24 24 18 16 19 32 32 33 32 32 32 34 33 35 34 38 39 38 38 39 39 39 38 38 35 36 36 35
11 11 13 12 12 12 13 14 14 14 14 14 14 15 15 15 15 16 18 18 18 20 19 20 21 20 20 22 21 20 18 17 18 19 19 17 16 16 15 17 15 19 17 18 18 16 12 9 13 12 9 13 12 12 14 13 15 17 18 19 19 15 24 30 32 31 32 33 31 34 33 35 35 38 39 39 37 38 38 39 37 36 36 36 35
11 11 12 14 13 14 13 14 14 14 15 14 14 15 15 15 16 18 14 17 18 18 18 19 20 18 19 19 17 17 17 17 18 18 18 18 18 17 16 16 17 19 19 19 19 12 14 8 11 15 12 11 11 11 10 12 17 19 16 22 20 19 27 29 29 30 30 30 31 32 34 36 38 38 40 41 39 38 38 36 37 38 37 36 35
11 12 13 13 13 13 13 15 14 15 15 15 14 14 14 16 14 14 15 16 17 18 17 16 16 16 18 20 18 19 17 19 18 18 18 17 17 17 16 15 18 20 22 15 19 14 10 13 11 13 15 13 11 11 12 12 16 19 16 13 16 21 26 26 30 30 30 31 32 32 35 37 36 40 39 38 40 38 38 37 36 37 37 35 34
12 13 13 13 14 15 14 14 15 15 15 15 14 14 13 13 13 14 15 16 18 18 17 15 14 15 17 19 18 17 16 17 17 18 18 19 19 19 17 16 18 18 18 16 19 24 10 12 13 13 15 15 12 14 15 14 15 21 18 17 17 18 18 16 28 31 30 31 31 32 33 34 34 43 43 42 41 40 37 37 38 37 37 35 34
11 13 13 14 14 14 15 15 16 16 16 16 14 13 14 14 15 16 16 16 17 16 16 18 16 16 18 18 18 18 17 19 17 17 18 18 18 16 15 17 18 17 17 16 16 21 12 10 13 12 13 13 14 12 16 15 14 15 16 16 17 15 14 14 15 29 31 30 29 32 34 37 34 31 43 44 42 41 39 37 36 37 37 36 35
11 12 14 13 13 15 15 16 16 16 16 16 15 13 15 17 17 15 13 17 17 18 16 17 16 14 16 18 18 19 17 19 19 19 17 16 17 16 16 16 16 16 16 16 16 13 18 9 13 11 12 11 14 14 12 15 14 14 15 17 15 17 15 14 14 17 29 29 31 32 32 33 36 34 33 40 38 38 38 39 37 36 37 36 34
11 11 13 14 15 15 15 15 16 16 16 15 14 15 16 18 18 18 17 17 19 18 18 17 17 16 18 18 18 17 15 18 19 19 19 20 18 17 18 17 17 16 15 16 14 16 15 13 11 13 11 12 13 16 13 13 14 13 14 17 16 14 14 16 15 14 26 29 31 32 33 33 34 36 33 36 43 42 38 35 35 36 36 35 34
12 12 12 13 14 15 16 16 15 16 16 15 16 16 18 17 19 20 18 18 18 18 18 18 17 16 18 19 17 17 18 20 19 18 17 17 16 15 17 18 17 18 15 14 15 13 11 14 10 11 10 12 13 14 13 13 13 13 13 15 15 17 17 16 17 15 22 31 31 31 32 34 34 33 33 28 26 31 37 39 36 35 35 33 32
11 12 12 12 14 14 14 15 17 16 16 17 18 18 17 18 19 19 20 18 18 18 18 18 17 18 18 18 19 17 17 19 19 17 17 19 17 16 16 16 16 16 12 13 12 12 13 14 13 11 11 11 12 13 12 12 13 13 14 17 16 16 15 17 15 15 24 31 31 32 32 34 34 35 36 33 29 26 27 30 34 35 36 35 32
12 12 12 12 12 15 16 16 16 16 16 18 19 19 19 18 18 18 18 19 18 18 18 17 17 17 17 19 18 17 18 18 18 18 16 17 15 16 18 17 15 12 11 11 11 12 13 14 12 12 10 12 12 13 13 12 13 13 13 15 15 14 16 14 15 14 16 18 19 24 29 30 34 34 36 34 34 33 30 29 30 32 34 34 33
12 13 13 14 13 14 16 16 15 16 19 18 18 19 19 20 19 18 19 18 19 18 17 18 17 17 18 18 18 17 18 19 19 19 18 19 15 15 16 18 14 10 9 10 9 11 12 12 12 13 13 12 12 15 12 11 13 13 14 11 14 13 14 17 14 15 18 20 25 30 27 27 34 31 33 33 33 33 31 28 27 29 30 32 32
12 13 14 15 15 14 14 15 16 16 17 18 18 19 19 19 19 19 17 19 18 19 19 18 18 18 18 19 19 19 18 17 18 19 19 19 18 16 15 16 13 11 10 9 9 10 11 10 10 10 11 11 8 11 11 10 11 12 13 14 15 13 13 15 17 16 16 21 18 21 26 28 29 33 37 34 35 35 34 31 30 28 31 30 30
10 12 13 15 16 16 14 15 16 15 16 16 14 15 16 19 19 19 20 19 20 18 20 18 19 18 19 17 19 18 19 24 28 26 24 21 15 13 16 16 13 9 8 7 6 9 11 10 10 10 12 13 12 11 11 10 12 14 11 14 14 13 14 15 16 19 18 19 19 19 20 22 22 21 20 20 23 31 30 32 28 31 31 30 31
11 12 13 14 15 15 16 16 15 15 15 13 18 28 26 20 20 18 17 18 18 18 17 17 19 19 20 18 16 24 26 27 29 30 30 30 31 23 16 15 15 11 7 7 7 9 10 10 9 9 11 13 13 11 12 12 13 13 13 15 14 12 12 13 13 15 19 20 20 20 19 19 20 19 20 21 20 23 19 20 20 24 30 32 32
11 12 12 14 14 13 16 16 17 15 15 14 28 29 30 32 24 20 19 18 18 19 18 17 18 19 18 17 17 19 21 23 22 30 30 31 30 30 32 31 25 20 11 9 9 9 11 11 8 8 11 13 13 12 13 14 12 13 14 14 13 14 16 17 17 10 16 24 21 20 17 18 21 20 19 19 20 19 20 20 30 33 36 35 33
10 10 12 13 13 15 14 16 16 16 16 23 30 31 32 32 29 21 18 16 16 14 18 16 17 16 16 15 14 13 12 14 17 18 23 27 28 29 29 30 30 33 29 15 10 10 11 11 10 10 11 12 13 12 13 12 12 14 16 14 15 16 14 13 13 15 10 21 23 21 19 18 20 21 21 20 21 20 22 26 31 30 29 31 33
10 10 13 13 14 14 15 16 17 17 17 24 30 32 31 31 31 27 17 17 15 16 16 18 17 16 16 16 14 12 13 19 18 18 18 18 21 25 25 27 28 26 24 26 22 14 10 11 11 12 12 12 13 14 14 14 13 14 16 14 15 17 16 15 15 15 16 18 24 22 22 19 19 19 20 19 19 18 20 25 31 33 33 32 30
10 11 11 13 13 15 15 16 17 17 18 23 30 31 31 31 31 28 17 17 16 16 17 16 15 15 16 16 15 13 13 14 13 16 16 17 14 13 14 13 13 16 19 20 22 22 19 15 13 14 14 10 14 15 16 14 16 16 15 16 14 17 19 20 15 18 18 19 24 21 18 18 17 18 19 17 17 18 17 25 32 32 32 32 31
11 10 12 12 13 12 14 14 15 16 15 27 30 32 31 31 31 28 14 15 15 16 16 17 17 17 17 17 16 16 15 13 12 16 16 15 12 12 13 14 13 12 12 12 12 13 13 13 13 15 16 16 16 17 17 16 19 18 16 18 20 18 17 14 12 15 18 19 22 24 21 18 17 18 16 16 15 16 15 24 31 32 33 32 31
9 9 10 10 12 13 13 13 14 16 16 28 30 31 32 30 32 18 14 15 16 16 16 16 15 14 16 16 15 16 15 16 17 23 22 17 13 14 13 14 14 13 12 11 15 15 14 12 12 13 13 16 18 16 17 16 17 16 16 14 17 16 15 16 15 11 15 11 16 19 17 17 16 19 15 13 15 16 15 15 27 31 31 32 32
11 10 10 10 11 12 13 13 14 15 15 22 29 31 30 31 25 15 16 15 15 16 16 16 15 14 15 16 15 13 14 15 19 22 23 24 16 16 15 14 13 12 13 10 15 21 23 23 23 25 26 27 28 30 31 31 21 18 13 13 13 16 18 18 16 15 13 14 10 13 17 16 14 12 11 12 13 14 15 16 18 28 31 31 31
11 10 10 10 10 11 15 16 13 16 16 22 30 29 30 29 26 18 14 15 15 16 16 16 14 14 15 24 22 17 16 16 22 23 23 21 15 13 11 13 14 13 13 11 10 10 16 20 22 22 23 25 27 31 32 32 31 24 16 16 17 19 19 18 17 17 13 14 12 15 16 13 13 13 12 7 7 4 13 14 16 21 29 27 31
10 10 10 10 11 12 13 14 20 20 15 19 27 28 29 30 25 16 15 14 16 16 15 16 14 14 14 15 22 22 19 20 25 23 24 20 15 14 12 11 13 14 13 11 11 11 9 9 10 10 13 16 16 16 18 27 28 24 19 19 19 20 22 21 20 17 16 11 9 18 20 12 15 13 15 13 9 2 4 9 13 14 15 15 19
Wind_Direction
358 351 343 343 341 341 339 339 338 339 340 336 336 329 324 322 321 321 320 317 315 313 313 307 303 301 297 294 292 291 292 291 290 292 291 289 287 283 282 280 273 271 267 263 263 262 265 266 262 257 257 256 254 241 239 239 232 223 225 226 228 224 220 217 197 196 207 199 192 190 189 189 184 174 172 169 167 167 171 172 173 173 173 172 169
347 341 340 336 337 337 339 341 339 341 341 337 335 328 322 317 313 312 311 312 311 310 310 307 305 301 296 294 292 289 286 287 288 287 289 289 289 288 286 285 282 276 271 266 265 262 261 261 263 261 258 255 255 252 238 237 236 231 222 222 224 224 216 213 211 202 204 199 194 187 184 188 181 180 174 165 166 170 171 172 174 173 175 171 169
342 339 336 338 338 340 340 339 336 338 338 332 330 327 322 319 317 314 312 309 305 304 304 303 299 299 297 294 293 291 288 284 282 283 285 284 285 287 288 285 282 278 272 267 262 260 261 262 262 261 260 257 255 255 249 235 232 230 231 225 222 224 222 215 199 202 205 200 190 186 188 187 182 178 175 168 169 169 170 170 175 174 172 171 169
330 334 337 340 338 337 334 336 333 331 333 329 325 321 318 312 312 310 307 304 303 302 300 296 296 294 294 292 291 289 288 287 284 281 278 282 284 283 284 286 284 279 275 270 265 261 258 256 255 258 259 259 258 255 253 244 232 229 228 231 221 224 222 217 197 203 204 203 191 186 186 186 185 179 173 170 170 171 171 173 175 174 172 170 168
328 331 336 333 331 328 330 329 326 326 323 322 319 317 316 317 314 314 310 308 306 305 303 297 295 293 292 290 288 285 284 282 282 283 280 276 278 281 279 279 281 282 278 272 267 261 258 257 256 254 255 257 257 256 254 252 240 234 228 230 225 219 224 222 204 199 201 200 193 189 188 187 184 179 174 171 171 171 171 174 174 172 171 172 170
318 329 336 336 331 327 324 322 321 320 317 318 319 319 318 320 320 319 315 313 310 309 309 303 299 297 294 292 287 287 286 282 278 276 278 279 278 274 276 275 274 276 278 276 271 260 255 254 254 252 251 254 254 254 252 252 250 240 233 227 231 224 223 224 205 198 205 198 194 192 190 186 185 180 174 173 173 172 173 173 173 172 170 172 170
301 325 337 340 331 323 318 318 319 316 315 315 314 315 315 318 323 321 317 316 315 313 312 306 305 302 299 296 292 290 285 281 280 277 273 273 274 275 271 271 273 273 274 273 270 265 256 254 252 251 250 248 250 252 251 251 250 248 239 234 228 226 223 221 222 202 196 193 193 191 188 185 183 179 174 173 174 174 173 174 175 173 172 172 169
298 328 340 340 329 318 318 318 318 317 314 311 311 309 312 309 310 314 318 319 321 316 315 308 303 297 295 292 292 291 285 282 281 278 276 274 268 267 271 271 269 271 273 273 273 271 265 255 252 249 246 246 248 249 249 247 246 247 246 237 231 228 227 222 223 206 198 199 194 190 187 184 180 175 177 175 173 174 174 174 174 173 173 172 170
298 326 343 333 325 318 313 312 312 311 307 309 305 308 310 306 303 308 312 310 312 307 305 301 299 296 295 290 286 284 280 280 278 277 279 272 271 267 264 266 270 265 266 267 268 270 266 258 255 250 245 243 244 246 248 249 245 245 245 240 229 227 218 222 226 218 200 201 197 190 188 185 176 177 179 176 172 174 175 175 174 172 173 173 169
289 323 336 330 318 310 306 308 310 308 306 304 302 302 300 301 302 303 307 303 299 301 299 295 289 288 286 284 284 279 278 277 275 275 271 270 269 268 267 267 264 265 263 264 265 263 265 263 253 250 245 239 240 242 244 244 243 245 244 243 235 226 222 220 226 220 209 197 197 195 186 182 178 178 176 173 176 173 172 173 173 173 175 173 171
286 320 334 326 315 306 305 309 309 306 308 306 308 309 308 308 306 304 300 292 292 294 293 294 289 283 281 280 279 277 277 274 274 273 269 267 268 269 269 265 263 262 263 262 262 264 261 261 262 252 242 235 237 237 239 241 240 240 244 244 241 231 219 214 224 221 213 201 194 189 186 179 180 180 176 175 176 174 172 171 171 173 175 173 172
292 326 329 323 316 310 307 309 312 311 312 315 315 319 316 312 305 304 303 296 285 282 285 287 284 281 279 277 271 274 274 274 272 268 268 267 266 267 264 263 261 261 258 257 258 260 263 260 255 255 249 238 230 235 237 238 237 237 237 242 243 241 226 214 212 220 211 202 198 189 181 179 178 178 176 177 176 169 173 170 169 172 174 174 175
304 323 321 311 303 299 299 304 309 310 307 304 306 305 304 302 302 300 296 292 284 273 274 285 289 288 277 272 279 272 269 267 263 264 264 266 266 265 263 262 261 260 258 258 257 258 260 259 255 250 249 238 237 228 232 236 234 233 235 236 237 240 233 215 214 212 210 201 193 192 183 179 179 177 175 173 173 175 171 169 170 172 173 176 176
292 305 304 304 302 300 299 301 310 305 299 297 300 299 300 297 298 297 281 280 283 270 281 289 285 300 317 314 297 276 259 256 255 258 259 258 259 260 261 260 260 259 259 257 254 251 250 252 251 249 246 241 234 228 224 231 232 231 232 233 232 234 236 225 217 219 211 204 191 188 183 182 180 176 175 175 176 176 171 173 173 175 177 177 175
295 306 305 304 301 301 302 305 305 306 303 301 299 298 296 295 294 292 300 283 275 278 271 275 292 306 300 301 300 320 301 261 254 251 245 250 254 256 256 256 256 255 257 258 258 255 251 249 249 245 245 242 229 230 229 223 219 223 228 230 229 231 233 230 218 221 217 207 193 185 183 182 182 180 176 176 177 177 175 175 175 176 175 177 176
296 296 292 288 292 295 299 302 302 304 301 300 298 293 293 292 292 289 289 295 288 283 267 268 268 301 304 264 304 311 302 293 321 281 270 263 254 255 256 258 260 263 265 265 262 259 254 252 252 250 243 241 236 226 229 224 218 216 223 224 227 227 229 231 219 219 220 211 206 191 179 179 178 180 181 177 176 177 177 176 175 174 174 176 177
295 295 293 294 294 293 293 294 292 291 289 286 286 283 283 280 280 278 276 279 292 290 281 263 259 242 245 292 290 265 244 283 316 290 276 277 266 258 257 258 262 263 262 265 273 277 277 268 256 251 248 243 236 231 228 227 220 216 217 220 220 222 226 229 225 216 219 212 199 192 184 173 176 174 173 177 180 177 178 177 175 175 176 177 179
264 267 264 273 275 274 277 282 284 283 281 280 280 281 275 272 269 273 275 273 280 292 288 274 258 252 240 240 243 263 293 298 311 289 301 268 280 280 273 262 262 266 268 269 268 268 267 269 272 263 249 244 238 232 226 225 220 218 209 214 215 219 221 223 228 218 211 211 192 183 181 179 176 176 174 175 182 181 178 175 176 177 177 178 179
275 268 276 275 278 278 278 279 279 280 281 280 277 274 274 270 271 270 274 280 278 278 280 287 284 256 246 245 249 255 264 279 273 288 286 280 253 260 258 256 254 254 256 256 264 272 272 270 269 274 269 248 237 231 229 224 219 217 210 211 209 214 218 219 223 223 218 213 203 193 188 181 175 176 178 179 179 181 176 176 178 179 178 178 179
277 279 277 279 281 281 279 281 281 279 278 274 274 276 275 272 269 272 275 271 271 269 279 280 276 280 257 256 256 256 256 254 255 264 277 285 281 266 269 267 262 261 262 263 264 264 269 271 268 267 270 263 241 228 226 224 221 217 214 208 206 208 213 216 215 218 221 213 206 197 190 186 183 179 178 180 180 181 177 174 177 180 178 177 179
265 275 275 276 276 279 280 278 277 277 275 273 271 272 273 277 277 275 271 272 266 267 270 270 270 271 279 269 266 261 259 258 262 263 263 272 273 273 270 268 266 258 252 257 258 262 269 270 271 266 266 274 265 237 224 223 221 217 213 203 205 205 209 211 210 210 214 209 204 196 191 187 187 187 185 181 178 178 177 170 172 178 178 177 179
273 267 274 270 273 274 276 275 275 276 274 273 274 274 273 273 273 273 272 270 266 262 260 264 265 268 264 270 271 268 261 255 252 252 261 257 267 273 268 270 267 261 254 257 257 260 266 271 273 274 271 274 278 261 230 219 217 218 214 200 202 205 205 206 207 206 208 207 203 197 193 187 185 186 183 183 181 177 177 173 172 176 176 176 179
278 275 269 276 271 271 272 274 275 277 277 277 274 276 277 277 276 273 269 266 265 263 262 261 263 265 266 262 262 260 258 256 250 249 249 257 258 260 264 257 260 266 255 256 257 259 263 270 274 273 275 270 266 273 253 222 214 213 209 200 198 203 203 203 202 203 204 203 204 200 192 188 189 179 177 182 181 179 177 174 173 176 176 175 179
280 282 276 274 277 276 275 278 275 273 274 275 275 277 279 278 276 273 271 267 263 262 260 261 259 264 267 263 259 260 258 256 258 258 257 260 264 268 268 271 269 264 267 264 263 261 264 265 265 265 264 268 267 259 273 247 217 209 206 202 197 200 203 202 200 201 202 203 203 202 194 188 185 192 184 175 176 178 178 176 175 177 176 175 179
289 282 278 274 279 282 283 280 282 279 280 280 279 277 276 276 274 273 269 266 262 259 261 259 264 263 269 265 261 258 255 256 256 252 253 257 260 265 265 268 272 273 269 269 268 263 254 259 263 267 268 265 265 267 265 260 235 210 204 201 197 197 202 201 199 199 201 203 201 203 197 190 184 182 187 183 176 176 177 176 176 176 176 175 181
287 282 279 279 272 272 275 276 275 278 279 279 279 279 276 275 275 271 269 265 264 260 260 262 266 268 263 265 259 257 255 255 255 255 253 254 258 259 273 272 268 271 271 264 268 272 257 240 250 257 260 257 259 258 257 258 254 219 200 204 198 198 200 201 199 198 199 201 202 198 195 192 188 182 180 185 180 177 177 178 176 175 175 177 180
283 285 285 279 277 274 272 274 275 274 277 278 278 277 274 273 271 269 269 265 265 270 269 267 268 267 263 260 258 257 256 254 252 252 252 252 254 258 264 273 273 268 270 266 266 258 268 270 259 264 263 265 263 262 261 262 250 227 200 202 201 202 200 200 199 197 197 200 203 199 202 194 187 183 180 178 180 179 177 178 177 174 173 175 178
286 286 285 283 283 283 280 276 277 276 275 276 277 276 276 273 272 268 270 268 268 271 272 272 268 267 266 262 257 257 256 256 256 253 250 251 254 259 261 263 267 270 268 268 263 265 248 269 274 252 258 256 256 252 255 256 260 231 198 199 202 198 199 198 197 196 196 198 200 200 193 201 186 180 178 179 179 179 176 177 176 172 171 175 178
286 288 289 287 285 287 290 288 284 282 280 278 278 278 276 274 274 273 277 280 277 274 276 271 271 270 267 262 257 259 256 254 251 250 252 255 255 255 252 255 258 263 268 262 261 263 257 217 272 273 248 263 253 249 248 251 251 240 212 203 199 187 193 196 196 196 196 195 199 196 194 187 189 179 177 177 180 179 177 176 174 171 172 174 179
290 290 291 293 292 290 289 289 288 287 288 286 283 281 277 278 278 280 277 279 277 280 278 272 271 269 266 264 259 260 258 254 252 251 252 253 256 256 258 259 255 257 259 263 266 252 265 240 253 275 273 265 275 282 282 270 255 237 226 203 201 200 183 192 195 196 195 195 196 197 194 191 185 183 180 177 177 178 177 177 174 170 171 173 177
293 294 295 295 295 295 295 293 293 290 289 288 287 285 281 284 280 280 281 281 280 280 279 275 272 269 267 266 263 260 258 258 257 256 256 256 256 258 257 255 256 254 255 254 265 257 233 262 254 252 270 273 273 278 281 281 281 246 223 212 201 194 185 191 197 199 198 195 196 198 195 194 193 182 180 178 175 179 176 174 175 170 169 172 175
293 293 293 294 296 299 297 295 294 294 292 291 288 284 282 278 279 283 285 285 281 279 279 275 274 271 270 268 265 263 261 260 257 255 253 249 246 247 249 254 259 254 248 249 250 262 232 256 262 265 266 275 279 280 281 285 281 275 223 201 202 191 188 195 197 201 200 197 196 196 195 198 201 186 181 178 177 176 177 175 173 170 167 170 173
293 294 295 297 298 297 298 295 294 293 291 290 289 288 289 284 285 284 286 282 280 279 279 279 273 272 271 269 267 265 265 262 257 255 254 254 257 256 255 255 255 253 243 244 249 259 258 242 264 263 268 274 274 262 272 274 278 275 250 215 200 194 190 188 193 199 198 196 195 196 193 191 195 207 182 176 176 173 173 176 172 169 165 168 171
293 295 297 298 297 296 295 292 292 291 290 289 290 290 290 292 289 291 285 284 282 280 280 278 276 275 277 273 270 269 265 266 265 260 255 253 250 254 256 254 251 250 239 240 245 255 265 252 261 259 267 264 272 263 255 267 270 270 257 232 205 196 193 190 188 194 194 195 193 194 193 190 186 187 194 173 172 171 172 171 171 168 164 167 171
296 296 299 299 298 296 294 292 294 293 290 290 291 293 293 294 289 289 285 283 280 279 277 275 275 274 273 275 277 275 270 266 262 259 257 256 253 252 252 253 256 251 241 236 241 250 261 263 256 268 265 265 261 275 267 264 265 266 261 236 210 198 194 189 189 188 192 193 193 192 187 184 180 177 187 183 171 169 168 169 169 166 163 165 168
301 301 298 297 297 297 296 294 292 292 292 292 294 295 293 290 290 284 283 282 278 276 275 276 276 275 274 273 272 276 275 267 262 262 260 259 250 241 240 247 250 253 244 241 240 249 259 270 255 260 264 268 270 268 275 268 263 262 255 243 217 198 189 189 185 185 187 186 186 184 181 176 173 172 171 175 177 172 166 165 166 164 161 161 164
300 301 298 299 297 296 294 294 295 293 292 295 299 296 292 292 285 285 281 279 276 275 274 273 273 273 272 272 274 273 273 274 273 263 255 255 259 263 259 251 246 242 238 240 249 253 260 265 270 264 269 266 266 272 266 269 266 260 251 239 220 192 187 181 179 179 177 182 178 176 174 171 169 168 165 164 164 167 167 166 164 161 159 160 163
300 298 295 295 295 294 292 293 292 291 295 299 296 295 293 288 287 282 280 278 275 274 272 270 270 268 269 269 270 270 271 271 268 272 276 271 269 267 266 257 242 230 227 235 240 250 257 263 271 275 258 259 265 257 258 253 259 261 257 238 225 197 177 176 175 170 172 175 172 172 169 168 166 166 163 161 161 163 167 169 166 161 159 159 161
297 297 296 295 292 294 294 294 291 299 303 298 297 292 290 287 282 281 279 277 276 272 267 266 261 260 263 264 264 263 265 265 269 270 270 273 274 272 273 270 242 227 224 231 237 249 256 265 271 270 271 256 248 262 252 246 253 251 254 247 214 197 182 172 171 169 168 174 172 168 168 166 163 161 160 159 161 161 163 166 164 160 159 159 161
296 294 296 295 294 292 294 300 303 303 299 301 298 296 292 288 286 279 277 275 271 270 267 263 262 261 257 262 260 260 256 258 260 261 260 259 265 271 269 270 254 232 228 233 237 248 257 263 265 273 271 273 257 250 267 260 258 255 241 229 214 191 183 177 169 166 172 164 170 166 162 160 161 160 158 159 162 162 163 163 163 161 160 162 163
291 291 293 292 294 295 296 301 303 301 303 297 297 293 294 292 289 286 281 272 268 265 269 262 262 256 259 253 257 251 246 248 252 255 256 252 252 259 263 269 266 235 232 228 236 248 258 261 266 269 275 277 271 273 264 249 242 247 244 217 205 190 178 173 173 168 168 164 160 162 164 161 158 159 158 159 164 162 164 162 162 161 163 164 165
290 291 292 296 299 302 306 306 307 304 298 297 291 293 293 292 291 290 288 285 279 272 264 262 263 257 259 249 247 249 254 256 257 260 259 256 252 250 257 264 273 270 232 225 232 243 253 258 257 263 267 267 270 265 259 249 245 243 238 222 195 175 169 168 166 175 164 160 157 161 159 159 156 157 159 159 162 161 163 163 165 165 166 167 168
288 290 298 303 305 305 308 307 308 304 301 295 295 294 296 295 295 291 288 283 277 275 266 262 260 261 255 241 242 243 251 263 265 265 263 259 255 252 251 253 256 259 261 236 235 240 252 256 258 258 260 267 269 269 262 257 249 239 231 217 188 172 173 169 170 168 173 156 157 153 158 161 156 158 162 162 161 161 165 169 167 168 168 168 169
292 294 302 305 307 310 308 308 304 299 297 298 296 298 298 298 297 293 288 284 280 273 269 259 261 253 251 242 240 244 238 246 260 263 262 257 255 253 250 250 251 252 248 241 238 244 245 253 254 250 256 260 268 267 267 262 251 242 227 214 184 167 165 168 156 164 186 162 152 155 158 162 162 158 161 164 165 168 169 166 164 162 167 168 168
298 303 307 306 307 307 306 302 300 298 294 297 298 299 301 302 302 300 293 286 281 279 274 266 255 252 254 252 248 236 250 250 260 258 263 266 260 257 258 259 261 258 252 241 235 241 250 253 251 252 248 261 268 262 263 266 255 241 215 204 187 166 163 163 166 156 168 175 151 155 157 162 160 161 159 162 164 164 163 161 161 164 168 168 168
303 304 303 304 305 305 303 301 299 295 293 294 299 302 305 305 305 305 298 295 291 289 290 285 269 257 256 253 249 247 251 252 250 257 254 255 258 258 256 256 255 259 258 256 254 253 251 249 248 252 255 254 259 267 268 275 270 238 215 193 183 168 166 169 170 156 156 169 160 148 148 158 159 156 158 160 160 161 163 163 164 166 166 166 167
310 307 308 308 304 298 296 294 292 289 288 297 304 306 308 310 310 310 299 300 301 299 296 291 285 270 261 254 248 251 251 241 245 254 259 257 247 244 253 259 259 254 251 248 245 245 246 247 249 253 262 260 260 265 267 264 271 254 214 192 177 174 164 142 143 158 160 169 158 151 155 155 156 155 156 155 157 160 161 165 166 167 166 166 167
300 300 299 297 295 297 294 292 291 290 290 301 306 309 312 312 313 313 309 306 303 297 292 291 284 277 265 254 250 250 249 252 250 253 252 256 253 251 250 254 256 252 249 241 241 240 241 244 249 255 259 263 265 262 258 258 265 266 225 204 176 159 145 144 149 166 156 164 159 147 144 153 156 151 150 151 153 158 158 162 169 168 167 167 167
307 307 299 296 293 292 297 298 293 292 289 301 309 313 314 314 317 316 311 304 300 299 298 296 292 283 269 256 250 247 248 252 253 255 255 254 248 247 248 249 249 252 254 245 239 246 248 247 252 256 260 266 268 268 266 260 258 265 256 198 176 152 153 152 153 156 159 152 168 146 141 144 154 140 133 149 153 152 157 164 170 170 168 168 168
308 301 298 294 292 295 303 303 298 298 302 306 311 315 316 318 321 317 309 307 303 303 300 295 292 283 274 266 257 252 253 253 256 256 257 259 267 262 248 239 244 249 252 252 254 249 244 248 252 256 261 271 271 270 260 258 258 259 235 196 173 160 156 150 155 157 154 159 156 143 139 151 139 137 131 111 104 117 159 163 167 170 167 170 169
297 296 295 296 301 305 305 299 307 312 298 303 309 316 320 320 321 316 314 309 305 301 300 297 293 289 278 266 260 257 254 255 256 257 255 254 254 254 258 262 256 251 248 248 248 252 252 253 255 263 271 273 278 269 254 250 250 250 235 195 173 167 158 159 154 151 147 158 172 156 140 150 145 147 137 136 141 3 143 157 160 164 168 168 169